Retour au catalogue

O3B FM7

ActifCommunicationsMEO
NORAD 40080·PAYLOAD·🇱🇺 Luxembourg

Lancé Jul 10, 2014 depuis Guiana Space Centre

Loading…

Prochains Passages (prochaines 24 heures)

TLE

FraisSource: CelesTrak SupGP

Époque: Sep 13, 2026, 13:59 UTC

1 40080C 14038B   26256.58333333  .00000000  00000+0  00000+0 0  2564
2 40080   0.0422 349.3031 0002908 143.3659 191.1599  5.00115765    11

Suivez O3B FM7 en temps réel avec AllMySat

Download on the App Store